Flight Track Log - Related Links

Times and Time Zones

All times are in EDT time to prevent confusion due to time zone crossing. See the EJA929 flight status page for this flight to view local times or setup timezone preferences in your user account.

Time Position Orientation Groundspeed Altitude Reporting Facility
EDT Latitude Longitude Course Direction KTS MPH feet Rate Location/Type
Mon 09:55:59 AM 45.4061 -84.8786 206° Southwest 270 311 10,100  Level Minneapolis Center
Mon 09:57:00 AM 45.3325 -84.9483 214° Southwest 302 348 12,800 2,146 Climbing Minneapolis Center
Mon 09:58:02 AM 45.2475 -85.0228 212° Southwest 342 394 14,500 1,694 Climbing Minneapolis Center
Mon 09:59:00 AM 45.0881 -85.1796 209° Southwest  Level FlightAware Approximate
Mon 09:59:04 AM 45.1603 -85.1022 213° Southwest 366 421 16,300  Level Minneapolis Center
Mon 10:00:00 AM 45.0004 -85.2708 210° Southwest  Level FlightAware Approximate
Mon 10:00:06 AM 45.0536 -85.2008 213° Southwest 378 435 18,400  Level Minneapolis Center
Mon 10:01:08 AM 44.9803 -85.2678 213° Southwest 386 444 19,600 1,597 Climbing Minneapolis Center
Mon 10:02:10 AM 44.8667 -85.3697 212° Southwest 400 460 21,700 1,839 Climbing Minneapolis Center
Mon 10:03:12 AM 44.7706 -85.4581 213° Southwest 408 470 23,400 1,632 Climbing Minneapolis Center
Mon 10:04:15 AM 44.6717 -85.5417 211° Southwest 411 473 25,100 1,488 Climbing Minneapolis Center
Mon 10:05:17 AM 44.5478 -85.5481 182° South 439 505 26,500 1,355 Climbing Minneapolis Center
Mon 10:06:19 AM 44.4219 -85.5436 179° South 447 514 27,900 1,500 Climbing Minneapolis Center
Mon 10:07:21 AM 44.2658 -85.5389 179° South 461 531 29,600 1,887 Climbing Minneapolis Center
Mon 10:08:23 AM 44.1328 -85.5353 179° South 472 543 31,800 2,081 Climbing Minneapolis Center
Mon 10:09:25 AM 43.9989 -85.5314 179° South 467 537 33,900 1,645 Climbing Minneapolis Center
Mon 10:10:27 AM 43.8686 -85.5283 179° South 466 536 35,200 1,016 Climbing Minneapolis Center
Mon 10:11:29 AM 43.7356 -85.5247 179° South 474 545 36,000 387 Climbing Minneapolis Center
Mon 10:12:31 AM 43.6042 -85.5192 178° South 473 544 36,000  Level Minneapolis Center
Mon 10:13:33 AM 43.4756 -85.5147 179° South 464 534 36,000  Level Minneapolis Center
Mon 10:14:27 AM 43.3500 -85.5111 179° South 449 517 36,000  Level Chicago Center
Mon 10:15:29 AM 43.2256 -85.5075 179° South 445 512 36,000  Level Chicago Center
Mon 10:16:31 AM 43.1008 -85.4925 175° South 445 512 36,000  Level Chicago Center
Mon 10:17:33 AM 42.9761 -85.4744 174° South 445 512 36,000  Level Chicago Center
Mon 10:18:35 AM 42.8517 -85.4558 174° South 446 513 36,000  Level Chicago Center
Mon 10:19:37 AM 42.7267 -85.4378 174° South 448 516 36,000  Level Chicago Center
Mon 10:20:39 AM 42.6008 -85.4197 174° South 453 521 36,000  Level Chicago Center
Mon 10:21:42 AM 42.4486 -85.3969 174° South 457 526 36,000  Level Chicago Center
Mon 10:22:44 AM 42.3211 -85.3794 174° South 461 531 36,000  Level Chicago Center
Mon 10:23:46 AM 42.1917 -85.3608 174° South 466 536 36,000  Level Chicago Center
Mon 10:24:48 AM 42.0636 -85.3419 174° South 464 534 36,000 -484 Level Chicago Center
Mon 10:25:50 AM 41.9369 -85.3247 174° South 468 539 35,000 -1,065 Descending Chicago Center
Mon 10:26:52 AM 41.7739 -85.3003 174° South 485 558 33,800 -1,113 Descending Chicago Center
Mon 10:27:54 AM 41.6344 -85.2797 174° South 493 567 32,700 -1,016 Descending Chicago Center
Mon 10:28:56 AM 41.4900 -85.2586 174° South 498 573 31,700 -968 Descending Chicago Center
Mon 10:29:58 AM 41.3517 -85.2386 174° South 498 573 30,700 -1,065 Descending Chicago Center
Mon 10:31:00 AM 41.2164 -85.2194 174° South 488 562 29,500 -1,694 Descending Chicago Center
Mon 10:32:02 AM 41.0794 -85.2008 174° South 494 568 27,200 -2,304 Descending Chicago Center
Mon 10:33:05 AM 40.9411 -85.1775 173° South 500 575 24,700 -1,920 Descending Chicago Center
Mon 10:34:07 AM 40.8111 -85.1378 167° South 481 554 23,200 -823 Descending Chicago Center
Mon 10:35:09 AM 40.6608 -85.0947 168° South 461 531 23,000 -113 Descending Chicago Center
Mon 10:35:53 AM 40.5733 -85.0697 168° South 461 531 23,000 -1,257 Level Indianapolis Center
Mon 10:36:54 AM 40.4481 -85.0347 168° South 461 531 20,800 -2,388 Descending Indianapolis Center
Mon 10:37:31 AM 40.3653 -85.0117 168° South 461 531 19,100 -2,571 Descending Indianapolis Center
Mon 10:38:25 AM 40.2572 -84.9800 167° South 434 499 16,900 -2,207 Descending Indianapolis Center
Mon 10:38:58 AM 40.2081 -84.9656 167° South 433 498 15,900 -2,170 Descending Indianapolis Center
Mon 10:39:59 AM 40.0931 -84.9333 168° South 425 489 13,500 -2,589 Descending Indianapolis Center
Mon 10:40:33 AM 40.0142 -84.9117 168° South 406 467 11,800 -2,360 Descending Indianapolis Center
Mon 10:41:28 AM 39.9222 -84.8861 168° South 398 458 10,000 -1,200 Descending Indianapolis Center
Mon 10:42:03 AM 39.8617 -84.8678 167° South 406 467 10,000  Level Indianapolis Center
Mon 10:42:34 AM 39.7997 -84.8519 169° South 394 453 10,000  Level Indianapolis Center
Mon 10:43:04 AM 39.7564 -84.8542 182° South 394 453 10,000  Level Indianapolis Center
Mon 10:44:06 AM 39.6503 -84.9217 206° Southwest 395 455 10,000  Level Indianapolis Center
Mon 10:45:08 AM 39.5633 -84.8581 151° Southeast 419 482 10,000  Level Indianapolis Center
Mon 10:46:10 AM 39.4925 -84.7233 124° Southeast 386 444 10,000 -732 Level Indianapolis Center
Mon 10:47:11 AM 39.4283 -84.6681 146° Southeast 304 350 8,500 -1,659 Descending Indianapolis Center
Mon 10:48:13 AM 39.3506 -84.6667 179° South 283 326 6,600 -1,742 Descending Indianapolis Center
Mon 10:49:15 AM 39.2772 -84.6678 181° South 268 308 4,900 -1,463 Descending Indianapolis Center
Mon 10:50:16 AM 39.2050 -84.6675 180° South 262 302 3,600 -1,104 Descending Indianapolis Center
Mon 10:51:58 AM 39.1167 -84.6667 180° South 148 170 1,900 -857 Descending Cincinnati TRACON
Mon 10:53:04 AM 39.0833 -84.6667 180° South 106 122 1,200 -636 Descending Cincinnati TRACON
Mon 10:55:00 AM 39.0488 -84.6678 180° South  Level Estimated

Login

Don't have an account? Register now (free) for customized features, flight alerts, and more!